• Em Portugal
  • Lista de países
  • Para 7 dias
  • Temperatura da água
  • Mapas de satélite
  • Mapa do tempo
  • Widgets de tempo
  • user-avatar
    Iniciar Sessão

    Previsão horária em Idjevan

    Hoje, 26 Setembro, Terça-feira

    Tempo Temperatura Precipitação Vento Pressão Humidade
    00:00 +18°C° 0 mm 1 m/s 696 mmHg 83%
    01:00 +18°C° 0 mm 1 m/s 696 mmHg 84%
    02:00 +16°C° 0 mm 1 m/s 696 mmHg 85%
    03:00 +18°C° 0 mm 1 m/s 696 mmHg 85%
    04:00 +16°C° 0 mm 1 m/s 696 mmHg 85%
    05:00 +16°C° 0 mm 1 m/s 696 mmHg 85%
    06:00 +16°C° 0 mm 1 m/s 696 mmHg 85%
    07:00 +18°C° 0 mm 1 m/s 696 mmHg 79%
    08:00 +19°C° 0 mm 1 m/s 695 mmHg 73%
    09:00 +20°C° 0 mm 2 m/s 696 mmHg 65%
    10:00 +21°C° 0 mm 2 m/s 696 mmHg 60%
    11:00 +23°C° 0 mm 2 m/s 696 mmHg 55%
    12:00 +24°C° 0 mm 2 m/s 695 mmHg 51%
    13:00 +25°C° 0 mm 2 m/s 695 mmHg 50%
    14:00 +25°C° 0 mm 3 m/s 695 mmHg 48%
    15:00 +25°C° 0 mm 3 m/s 694 mmHg 47%
    16:00 +24°C° 0,2 mm 3 m/s 694 mmHg 56%
    17:00 +21°C° 0,2 mm 2 m/s 694 mmHg 64%
    18:00 +19°C° 0,2 mm 2 m/s 694 mmHg 72%
    19:00 +19°C° 0,1 mm 2 m/s 694 mmHg 76%
    20:00 +19°C° 0,1 mm 2 m/s 695 mmHg 79%
    21:00 +18°C° 0,1 mm 2 m/s 695 mmHg 82%
    22:00 +18°C° 0,1 mm 2 m/s 695 mmHg 83%
    23:00 +18°C° 0,1 mm 2 m/s 695 mmHg 85%

    Amanhã, 27 Setembro, Quarta-feira

    Tempo Temperatura Precipitação Vento Pressão Humidade
    00:00 +17°C° 0,1 mm 2 m/s 695 mmHg 86%
    01:00 +17°C° 0,1 mm 2 m/s 695 mmHg 87%
    02:00 +17°C° 0,1 mm 2 m/s 695 mmHg 88%
    03:00 +16°C° 0,1 mm 2 m/s 694 mmHg 90%
    04:00 +16°C° 0 mm 2 m/s 694 mmHg 90%
    05:00 +16°C° 0 mm 2 m/s 694 mmHg 90%
    06:00 +15°C° 0 mm 2 m/s 694 mmHg 90%
    07:00 +16°C° 0,1 mm 2 m/s 694 mmHg 86%
    08:00 +17°C° 0,1 mm 2 m/s 694 mmHg 82%
    09:00 +18°C° 0,1 mm 2 m/s 694 mmHg 77%
    10:00 +18°C° 0,1 mm 2 m/s 694 mmHg 74%
    11:00 +19°C° 0,1 mm 2 m/s 694 mmHg 70%
    12:00 +20°C° 0,1 mm 3 m/s 694 mmHg 67%
    13:00 +20°C° 0,2 mm 3 m/s 693 mmHg 68%
    14:00 +20°C° 0,2 mm 3 m/s 693 mmHg 69%
    15:00 +19°C° 0,2 mm 3 m/s 693 mmHg 70%
    16:00 +18°C° 0,7 mm 3 m/s 693 mmHg 76%
    17:00 +17°C° 0,7 mm 2 m/s 693 mmHg 82%
    18:00 +16°C° 0,7 mm 2 m/s 693 mmHg 88%
    19:00 +16°C° 0,4 mm 2 m/s 693 mmHg 89%
    20:00 +16°C° 0,4 mm 2 m/s 694 mmHg 90%
    21:00 +16°C° 0,4 mm 2 m/s 694 mmHg 91%
    22:00 +15°C° 0,1 mm 2 m/s 694 mmHg 92%
    23:00 +15°C° 0,1 mm 2 m/s 694 mmHg 92%

    Depois de amanhã, 28 Setembro, Quinta-feira

    Tempo Temperatura Precipitação Vento Pressão Humidade
    00:00 +15°C° 0,1 mm 2 m/s 694 mmHg 92%
    01:00 +15°C° 0,1 mm 2 m/s 694 mmHg 92%
    02:00 +14°C° 0,1 mm 2 m/s 694 mmHg 92%
    03:00 +14°C° 0,1 mm 2 m/s 694 mmHg 93%
    04:00 +14°C° 0,2 mm 2 m/s 694 mmHg 93%
    05:00 +14°C° 0,2 mm 2 m/s 694 mmHg 93%
    06:00 +14°C° 0,2 mm 2 m/s 694 mmHg 93%
    07:00 +14°C° 0,2 mm 2 m/s 694 mmHg 91%
    08:00 +14°C° 0,2 mm 2 m/s 695 mmHg 89%
    09:00 +15°C° 0,2 mm 2 m/s 695 mmHg 87%
    10:00 +15°C° 0,3 mm 2 m/s 695 mmHg 85%
    11:00 +14°C° 0,3 mm 3 m/s 695 mmHg 83%
    12:00 +16°C° 0,3 mm 3 m/s 695 mmHg 81%
    13:00 +14°C° 0,2 mm 3 m/s 695 mmHg 82%
    14:00 +14°C° 0,2 mm 3 m/s 694 mmHg 83%
    15:00 +14°C° 0,2 mm 3 m/s 694 mmHg 84%
    16:00 +13°C° 0,2 mm 3 m/s 695 mmHg 86%
    17:00 +13°C° 0,2 mm 3 m/s 695 mmHg 88%
    18:00 +13°C° 0,2 mm 2 m/s 695 mmHg 90%
    19:00 +13°C° 0,2 mm 2 m/s 696 mmHg 91%
    20:00 +13°C° 0,2 mm 2 m/s 696 mmHg 91%
    21:00 +13°C° 0,2 mm 2 m/s 696 mmHg 92%
    22:00 +13°C° 0,4 mm 2 m/s 697 mmHg 92%
    23:00 +12°C° 0,4 mm 2 m/s 697 mmHg 92%

    29 Setembro, Sexta-feira

    Tempo Temperatura Precipitação Vento Pressão Humidade
    00:00 +12°C° 0,4 mm 2 m/s 697 mmHg 92%
    01:00 +12°C° 0,3 mm 2 m/s 697 mmHg 92%
    02:00 +12°C° 0,3 mm 2 m/s 697 mmHg 92%
    03:00 +12°C° 0,3 mm 2 m/s 697 mmHg 93%
    04:00 +12°C° 0,2 mm 2 m/s 697 mmHg 93%
    05:00 +12°C° 0,2 mm 2 m/s 697 mmHg 93%
    06:00 +12°C° 0,2 mm 2 m/s 697 mmHg 94%
    07:00 +12°C° 0,1 mm 2 m/s 697 mmHg 92%
    08:00 +12°C° 0,1 mm 2 m/s 697 mmHg 90%
    09:00 +13°C° 0,1 mm 2 m/s 697 mmHg 88%
    10:00 +13°C° 0,1 mm 2 m/s 697 mmHg 86%
    11:00 +13°C° 0,1 mm 2 m/s 696 mmHg 85%
    12:00 +13°C° 0,1 mm 3 m/s 696 mmHg 84%
    13:00 +13°C° 0,1 mm 3 m/s 696 mmHg 84%
    14:00 +13°C° 0,1 mm 3 m/s 696 mmHg 85%
    15:00 +13°C° 0,1 mm 3 m/s 695 mmHg 85%
    16:00 +12°C° 0,1 mm 3 m/s 695 mmHg 87%
    17:00 +13°C° 0,1 mm 2 m/s 696 mmHg 89%
    18:00 +12°C° 0,1 mm 2 m/s 696 mmHg 91%
    19:00 +12°C° 0,1 mm 2 m/s 696 mmHg 91%
    20:00 +12°C° 0,1 mm 2 m/s 696 mmHg 92%
    21:00 +12°C° 0,1 mm 2 m/s 696 mmHg 93%
    22:00 +12°C° 0,3 mm 2 m/s 696 mmHg 93%
    23:00 +12°C° 0,3 mm 2 m/s 696 mmHg 93%

    30 Setembro, Sábado

    Tempo Temperatura Precipitação Vento Pressão Humidade
    00:00 +12°C° 0,3 mm 2 m/s 696 mmHg 93%
    01:00 +12°C° 0,1 mm 2 m/s 695 mmHg 93%
    02:00 +12°C° 0,1 mm 2 m/s 695 mmHg 93%
    03:00 +12°C° 0,1 mm 2 m/s 695 mmHg 93%
    04:00 +11°C° 0 mm 1 m/s 695 mmHg 93%
    05:00 +11°C° 0 mm 1 m/s 695 mmHg 93%
    06:00 +11°C° 0 mm 1 m/s 695 mmHg 92%
    07:00 +12°C° 0 mm 1 m/s 695 mmHg 88%
    08:00 +13°C° 0 mm 1 m/s 694 mmHg 83%
    09:00 +14°C° 0 mm 2 m/s 694 mmHg 78%
    10:00 +15°C° 0,1 mm 2 m/s 694 mmHg 76%
    11:00 +16°C° 0,1 mm 2 m/s 694 mmHg 73%
    12:00 +16°C° 0,1 mm 2 m/s 693 mmHg 71%
    13:00 +16°C° 0,1 mm 2 m/s 693 mmHg 71%
    14:00 +16°C° 0,1 mm 2 m/s 692 mmHg 71%
    15:00 +17°C° 0,1 mm 2 m/s 692 mmHg 71%
    16:00 +16°C° 0,1 mm 1 m/s 692 mmHg 75%
    17:00 +15°C° 0,1 mm 1 m/s 692 mmHg 79%
    18:00 +14°C° 0,1 mm 1 m/s 692 mmHg 83%
    19:00 +14°C° 0,3 mm 1 m/s 692 mmHg 84%
    20:00 +14°C° 0,3 mm 1 m/s 692 mmHg 86%
    21:00 +14°C° 0,3 mm 1 m/s 692 mmHg 87%
    22:00 +14°C° 0,2 mm 1 m/s 692 mmHg 88%
    23:00 +14°C° 0,2 mm 1 m/s 692 mmHg 89%

    1 Outubro, Domingo

    Tempo Temperatura Precipitação Vento Pressão Humidade
    00:00 +13°C° 0,2 mm 1 m/s 692 mmHg 90%
    01:00 +13°C° 0,1 mm 1 m/s 692 mmHg 90%
    02:00 +13°C° 0,1 mm 1 m/s 692 mmHg 90%
    03:00 +13°C° 0,1 mm 1 m/s 692 mmHg 90%
    04:00 +13°C° 0 mm 1 m/s 692 mmHg 89%
    05:00 +13°C° 0 mm 1 m/s 693 mmHg 88%
    06:00 +12°C° 0 mm 1 m/s 693 mmHg 87%
    07:00 +14°C° 0 mm 1 m/s 693 mmHg 78%
    08:00 +16°C° 0 mm 1 m/s 694 mmHg 70%
    09:00 +19°C° 0 mm 1 m/s 694 mmHg 61%
    10:00 +19°C° 0 mm 2 m/s 694 mmHg 57%
    11:00 +21°C° 0 mm 2 m/s 694 mmHg 53%
    12:00 +23°C° 0 mm 2 m/s 694 mmHg 49%
    13:00 +23°C° 0 mm 2 m/s 693 mmHg 49%
    14:00 +23°C° 0 mm 2 m/s 693 mmHg 49%
    15:00 +23°C° 0 mm 2 m/s 693 mmHg 49%
    16:00 +21°C° 0,2 mm 2 m/s 693 mmHg 57%
    17:00 +20°C° 0,2 mm 1 m/s 693 mmHg 64%
    18:00 +19°C° 0,2 mm 1 m/s 693 mmHg 71%
    19:00 +18°C° 0,3 mm 1 m/s 693 mmHg 75%
    20:00 +18°C° 0,3 mm 1 m/s 694 mmHg 79%
    21:00 +16°C° 0,3 mm 1 m/s 694 mmHg 82%
    22:00 +16°C° 0,4 mm 2 m/s 694 mmHg 85%
    23:00 +15°C° 0,4 mm 2 m/s 694 mmHg 87%
    Mostrar mais